CST,Max TemperatureF,Mean TemperatureF,Min TemperatureF,Max Dew PointF,MeanDew PointF,Min DewpointF,Max Humidity, Mean Humidity, Min Humidity, Max Sea Level PressureIn, Mean Sea Level PressureIn, Min Sea Level PressureIn, Max VisibilityMiles, Mean VisibilityMiles, Min VisibilityMiles, Max Wind SpeedMPH, Mean Wind SpeedMPH, Max Gust SpeedMPH,PrecipitationIn, CloudCover, Events, WindDirDegrees
2013-2-1,23,15,7,14,4,-1,76,66,56,30.53,30.43,30.32,10,10,7,24,10,29,T,4,,261
2013-2-2,36,29,22,25,21,16,88,72,56,30.30,30.16,30.07,10,5,1,17,11,22,0.01,7,Snow,238
2013-2-3,33,28,22,25,20,16,88,73,58,30.18,30.08,30.01,10,5,0,24,7,31,T,7,Fog-Snow,299
2013-2-4,44,33,22,35,27,19,89,77,64,30.11,29.93,29.83,10,8,6,17,9,22,T,5,Rain,206
2013-2-5,47,35,23,34,28,22,92,76,60,30.13,29.99,29.91,7,5,2,17,7,21,0.00,1,,268
2013-2-6,44,35,26,31,28,23,92,75,57,30.29,30.21,30.13,7,5,2,7,4,7,0.00,2,,81
2013-2-7,63,46,29,50,35,27,89,68,46,30.15,29.97,29.84,10,5,2,23,8,28,0.11,3,Rain,205
2013-2-8,42,38,33,30,27,25,82,76,69,30.40,30.24,29.96,10,8,6,29,14,33,0.00,8,,347
2013-2-9,45,38,31,31,27,24,85,69,53,30.42,30.31,30.14,10,9,6,14,7,17,0.00,3,,110
2013-2-10,53,45,37,49,42,31,89,74,59,30.13,29.86,29.71,10,7,2,30,15,36,0.42,7,Rain-Thunderstorm,169
2013-2-11,53,43,33,46,29,26,89,68,46,30.14,30.00,29.76,10,10,10,29,14,36,0.00,1,,255
2013-2-12,47,37,27,34,29,25,85,67,49,30.18,30.08,29.93,10,8,4,12,3,20,0.00,1,,323
2013-2-13,48,41,34,33,29,25,85,64,42,29.93,29.88,29.84,9,6,4,15,7,17,0.00,4,,258
2013-2-14,56,45,33,36,33,30,96,71,46,30.06,29.93,29.87,10,7,2,21,10,26,0.00,1,,234
2013-2-15,39,32,24,30,24,18,89,67,44,30.24,30.17,30.06,10,8,5,22,8,26,0.00,4,,304
2013-2-16,32,26,20,20,14,11,81,60,39,30.24,30.20,30.18,10,10,8,22,10,25,0.00,2,,306
2013-2-17,40,28,15,20,16,12,80,60,40,30.30,30.21,30.10,10,10,8,13,6,16,0.00,0,,104
2013-2-18,61,46,31,46,36,19,86,63,40,30.08,29.81,29.63,10,8,2,41,21,53,0.48,5,Rain,196
2013-2-19,38,31,24,23,17,13,72,65,58,30.27,30.03,29.82,10,10,6,30,17,38,0.00,6,,284
2013-2-20,27,22,17,16,12,9,68,59,50,30.42,30.35,30.27,10,10,9,14,9,16,0.00,0,,347
2013-2-21,33,27,20,30,24,15,92,76,59,30.35,30.11,29.88,10,5,0,26,12,33,0.02,5,Fog-Rain-Snow,78
2013-2-22,41,35,29,37,31,21,100,85,69,30.07,29.95,29.84,10,6,0,20,9,24,0.02,7,Fog-Rain-Snow,231
2013-2-23,39,32,24,23,21,19,81,67,52,30.07,30.04,29.99,9,7,4,15,6,16,0.00,0,,287
2013-2-24,45,34,22,30,24,19,92,71,49,30.19,30.13,30.05,9,6,2,7,2,8,0.00,0,Snow,50
2013-2-25,50,40,29,28,27,24,78,60,42,30.13,29.99,29.67,10,8,4,22,12,29,T,2,,67
2013-2-26,50,44,38,45,39,26,100,77,53,29.63,29.47,29.37,10,5,2,24,13,29,0.80,8,Rain,118
2013-2-27,40,37,33,37,32,30,100,88,76,29.83,29.75,29.60,9,5,1,22,14,31,0.04,8,Rain-Snow,259
2013-2-28,38,36,33,34,31,30,100,88,76,30.05,29.96,29.81,8,6,4,17,12,22,T,8,Snow,297